Von / Nach
Hinflug - Rückflug
Erwachsene / Kinder
Promocode
Nächste Ankünfte Flughafen St.Gallen-Altenrhein

ZeitErw.vonFlugInfo
14:1514:15WienPE103
planmässig
17:2517:25WienPE105
planmässig
Nächste Abflüge Flughafen St.Gallen-Altenrhein

ZeitGeplantnachFlugInfo
09:5009:50WienPE102
planmässig
14:4514:45WienPE104
planmässig

Flugplan

Bitte wählen Sie Ihren gewünschten Abflug- und Zielflughafen aus.


Live aus Altenrhein
LIVE
LSZR 192220Z AUTO 12010KT 9999 -RA VCTS BKN100 BKN120 SCT///CB 17/16 Q1014
Zeitraffer heute
2019-06-20 00:14:18
LSZR 192150Z AUTO 17004KT 060V220 9999 +RA SCT090 OVC110 SCT///CB 18/15 Q1014 RETSRA
Zeitraffer gestern
2019-06-19 00:14:40
LSZR 182150Z AUTO VRB07KT CAVOK 21/13 Q1015

Wien

Samstags-Special: Altenrhein-Wien für EUR 89.-.

 

Jetzt buchen

Menorca

Ab EUR 299.- hin & zurück.

 

Jetzt buchen

Kalabrien

Ab EUR 329.- hin & zurück.

 

Jetzt buchen

Ibiza

Ab EUR 279.- hin & zurück.

 

Jetzt buchen

Mallorca

Ab EUR 349.- hin & zurück.

 

Jetzt buchen

General Aviation

Business & General Aviation LSZR.

 

More information

 

 Shuttlebus


Nutzen Sie unseren

Shuttlebus zwischen Altenrhein

und Dornbirn & Bregenz.

 

Mehr dazu

 

People's Online-Shop


Von der Überraschung an

Bord über Badetücher bis

zum Flugzeugmodell.

 

Mehr dazu


News


Aktuelles von People's

und dem Flughafen

St.Gallen-Altenrhein.

 

Mehr dazu

 

Ad-hoc Charter


Chartern Sie eine unserer

Embraer170 für Ihren eigenen

Anlass oder ACMI-Einsätze.


Mehr dazu

  

 

Teile dein People's-Erlebnis mit uns:

 

#peoplesairline bei Instagram